Location: Zagreb
(45.8000°N, 16.0000°E)
Time: 00:48:21
(UTC+01:00)

Vanguard 3 - Visible Passes

Search period start: 26 January 2020 00:00
Search period end: 05 February 2020 00:00
Orbit: 507 x 3263 km, 33.4° (Epoch: 25 January)

Date Brightness Start Highest point End Pass type
(mag) Time Alt. Az. Time Alt. Az. Time Alt. Az.
26 Jan 10.4 17:54:32 10° WSW 18:13:16 51° S 18:26:38 15° ESE visible
26 Jan 9.7 20:10:08 10° W 20:28:01 50° SSW 20:31:12 45° SSE visible
26 Jan 10.6 22:27:47 10° W 22:35:46 25° WSW 22:35:46 25° WSW visible
27 Jan 10.1 18:53:13 10° WSW 19:12:08 54° S 19:21:24 28° ESE visible
27 Jan 10.0 21:09:52 10° W 21:25:58 41° SSW 21:25:58 41° SSW visible
27 Jan 11.1 23:29:28 10° W 23:30:33 11° WSW 23:30:33 11° WSW visible
28 Jan 10.5 17:37:02 10° WSW 17:55:48 53° S 18:11:37 10° ESE visible
28 Jan 9.9 19:52:29 10° W 20:10:47 50° SSW 20:16:12 39° SSE visible
28 Jan 10.5 22:10:14 10° W 22:20:46 27° SW 22:20:46 27° SW visible
29 Jan 10.3 18:35:43 10° WSW 18:54:44 55° S 19:06:26 21° ESE visible
29 Jan 10.0 20:52:14 10° W 21:08:56 40° SSW 21:11:01 39° SSW visible
29 Jan 11.1 23:12:22 10° W 23:15:35 14° WSW 23:15:35 14° WSW visible
30 Jan 10.5 17:19:42 10° WSW 17:38:16 55° S 17:55:01 10° ESE visible
30 Jan 10.1 19:34:57 10° W 19:53:26 50° SSW 20:01:19 31° SE visible
30 Jan 10.5 21:52:44 10° W 22:05:53 28° SW 22:05:53 28° SW visible
31 Jan 10.4 18:18:21 10° WSW 18:37:15 55° S 18:51:38 15° ESE visible
31 Jan 10.2 20:34:42 10° W 20:51:36 39° SSW 20:56:12 34° S visible
31 Jan 11.0 22:55:26 10° W 23:00:47 14° WSW 23:00:47 14° WSW visible
01 Feb 10.6 17:02:32 10° WSW 17:20:42 56° S 17:38:13 10° ESE visible
01 Feb 10.4 19:17:32 10° W 19:35:59 49° SSW 19:46:36 23° SE visible
01 Feb 10.6 21:35:20 10° W 21:49:02 26° SW 21:51:11 26° SSW visible
02 Feb 10.5 18:01:08 10° WSW 18:19:43 54° S 18:36:22 10° ESE visible
02 Feb 10.4 20:17:15 10° W 20:34:09 38° SSW 20:41:38 26° S visible
02 Feb 11.1 22:38:46 10° WSW 22:45:48 14° SW 22:46:13 14° SW visible
03 Feb 10.6 19:00:14 10° W 19:18:27 47° SSW 19:32:09 15° SE visible
03 Feb 10.7 21:18:03 10° W 21:31:36 25° SW 21:36:45 21° SSW visible
04 Feb 10.6 17:44:03 10° W 18:02:08 53° S 18:19:27 10° ESE visible
04 Feb 10.7 19:59:58 10° W 20:16:37 36° SSW 20:27:21 18° SSE visible
04 Feb 11.1 22:22:35 10° WSW 22:28:24 12° SW 22:31:57 11° SW visible
